QPF
0.01 0.01 0.02 0.02 0.01 0.01 0.01 0.01 0.02 0.02 0.02 0.02 0.01 0.01 0.01 0.00 0.01 0.01 0.02 0.01 0.02 0.03 0.05 0.06 0.06 0.07 0.07 0.08 0.08 0.07 0.06 0.05 0.06 0.06 0.07 0.07 0.04 0.04
0.02 0.01 0.01 0.01 0.01 0.01 0.01 0.01 0.01 0.01 0.02 0.03 0.02 0.01 0.01 0.00 0.01 0.01 0.01 0.01 0.01 0.02 0.03 0.05 0.06 0.07 0.07 0.08 0.08 0.08 0.08 0.09 0.10 0.09 0.14 0.09 0.05 0.04
0.02 0.02 0.01 0.01 0.02 0.02 0.01 0.01 0.01 0.02 0.02 0.02 0.03 0.03 0.02 0.01 0.01 0.01 0.01 0.01 0.01 0.02 0.02 0.03 0.04 0.05 0.05 0.05 0.05 0.06 0.10 0.11 0.12 0.11 0.11 0.07 0.06 0.06
0.03 0.02 0.02 0.02 0.02 0.02 0.01 0.01 0.02 0.03 0.03 0.02 0.02 0.03 0.03 0.02 0.02 0.01 0.01 0.01 0.01 0.01 0.01 0.02 0.02 0.03 0.03 0.04 0.04 0.05 0.11 0.12 0.12 0.12 0.08 0.05 0.05 0.06
0.03 0.02 0.02 0.02 0.02 0.02 0.02 0.03 0.03 0.03 0.03 0.03 0.02 0.02 0.03 0.03 0.02 0.01 0.01 0.00 0.00 0.00 0.00 0.01 0.01 0.01 0.01 0.03 0.04 0.06 0.08 0.11 0.12 0.10 0.08 0.05 0.05 0.05
0.03 0.02 0.02 0.02 0.02 0.02 0.02 0.03 0.04 0.04 0.04 0.04 0.03 0.02 0.02 0.03 0.03 0.02 0.01 0.01 0.01 0.00 0.01 0.01 0.01 0.01 0.01 0.02 0.05 0.06 0.06 0.07 0.12 0.11 0.09 0.08 0.05 0.04
0.04 0.03 0.02 0.02 0.02 0.03 0.02 0.02 0.02 0.03 0.04 0.04 0.03 0.03 0.03 0.03 0.02 0.02 0.01 0.01 0.01 0.01 0.01 0.00 0.00 0.01 0.01 0.02 0.05 0.06 0.04 0.05 0.09 0.11 0.08 0.07 0.06 0.05
0.04 0.04 0.03 0.03 0.02 0.02 0.02 0.02 0.02 0.03 0.03 0.03 0.03 0.03 0.03 0.02 0.02 0.02 0.01 0.01 0.00 0.01 0.01 0.01 0.01 0.01 0.01 0.02 0.04 0.06 0.06 0.07 0.09 0.09 0.06 0.05 0.05 0.04
0.03 0.04 0.04 0.03 0.02 0.02 0.02 0.02 0.02 0.02 0.03 0.03 0.03 0.03 0.03 0.02 0.02 0.02 0.02 0.01 0.01 0.00 0.01 0.01 0.01 0.01 0.01 0.01 0.02 0.05 0.07 0.06 0.08 0.10 0.07 0.04 0.04 0.03
0.03 0.03 0.04 0.03 0.02 0.02 0.02 0.01 0.02 0.02 0.02 0.02 0.03 0.03 0.04 0.04 0.04 0.03 0.03 0.02 0.01 0.00 0.00 0.01 0.01 0.01 0.01 0.01 0.02 0.04 0.07 0.07 0.07 0.09 0.07 0.04 0.03 0.03
0.03 0.03 0.03 0.03 0.03 0.04 0.03 0.02 0.01 0.02 0.02 0.02 0.02 0.04 0.04 0.05 0.05 0.05 0.04 0.03 0.02 0.01 0.01 0.01 0.01 0.01 0.01 0.01 0.02 0.03 0.05 0.07 0.07 0.07 0.05 0.04 0.04 0.02
0.03 0.02 0.04 0.04 0.04 0.04 0.03 0.02 0.02 0.03 0.03 0.02 0.02 0.03 0.04 0.04 0.04 0.04 0.04 0.03 0.02 0.02 0.01 0.01 0.01 0.02 0.02 0.02 0.03 0.03 0.04 0.06 0.07 0.07 0.06 0.05 0.04 0.02
0.04 0.03 0.03 0.04 0.03 0.03 0.03 0.03 0.02 0.03 0.03 0.04 0.04 0.04 0.04 0.04 0.04 0.04 0.04 0.04 0.03 0.03 0.02 0.02 0.03 0.03 0.03 0.03 0.04 0.05 0.06 0.06 0.06 0.06 0.06 0.05 0.05 0.03
0.04 0.03 0.02 0.03 0.03 0.04 0.04 0.04 0.04 0.04 0.04 0.04 0.04 0.05 0.05 0.05 0.05 0.04 0.04 0.04 0.04 0.03 0.02 0.02 0.02 0.02 0.03 0.04 0.04 0.05 0.06 0.07 0.07 0.07 0.07 0.07 0.06 0.06
0.06 0.05 0.03 0.02 0.01 0.01 0.02 0.03 0.03 0.04 0.04 0.04 0.04 0.04 0.04 0.04 0.05 0.05 0.04 0.04 0.03 0.03 0.02 0.01 0.02 0.02 0.03 0.04 0.04 0.04 0.06 0.08 0.09 0.09 0.09 0.09 0.07 0.06
0.04 0.06 0.05 0.03 0.02 0.02 0.02 0.02 0.03 0.03 0.03 0.03 0.03 0.03 0.04 0.05 0.05 0.05 0.05 0.05 0.04 0.03 0.03 0.02 0.02 0.02 0.03 0.03 0.04 0.04 0.05 0.06 0.08 0.09 0.10 0.10 0.08 0.06
0.05 0.06 0.07 0.06 0.05 0.03 0.02 0.02 0.03 0.03 0.03 0.03 0.02 0.03 0.04 0.04 0.04 0.04 0.05 0.05 0.04 0.03 0.03 0.03 0.03 0.03 0.04 0.04 0.04 0.04 0.05 0.06 0.07 0.08 0.10 0.10 0.09 0.07
0.05 0.06 0.08 0.07 0.06 0.05 0.04 0.03 0.03 0.03 0.03 0.03 0.03 0.03 0.03 0.03 0.03 0.03 0.04 0.05 0.04 0.03 0.03 0.03 0.03 0.04 0.04 0.04 0.04 0.04 0.05 0.06 0.07 0.08 0.09 0.09 0.08 0.07
0.04 0.05 0.07 0.09 0.08 0.06 0.05 0.04 0.03 0.03 0.03 0.03 0.03 0.04 0.03 0.03 0.03 0.03 0.04 0.04 0.04 0.03 0.03 0.03 0.04 0.04 0.04 0.04 0.03 0.03 0.03 0.04 0.06 0.07 0.07 0.08 0.07 0.06
0.04 0.04 0.04 0.06 0.08 0.09 0.07 0.05 0.04 0.04 0.04 0.04 0.04 0.04 0.04 0.03 0.03 0.03 0.03 0.03 0.03 0.03 0.03 0.03 0.03 0.04 0.04 0.03 0.03 0.03 0.02 0.03 0.04 0.05 0.05 0.05 0.05 0.05
0.03 0.03 0.03 0.04 0.05 0.07 0.08 0.07 0.05 0.04 0.04 0.04 0.04 0.05 0.04 0.03 0.03 0.03 0.03 0.03 0.03 0.03 0.04 0.03 0.03 0.03 0.03 0.03 0.03 0.03 0.03 0.03 0.03 0.04 0.04 0.04 0.04 0.04
0.04 0.03 0.03 0.04 0.04 0.04 0.05 0.06 0.06 0.05 0.04 0.04 0.04 0.04 0.04 0.04 0.03 0.03 0.03 0.02 0.03 0.03 0.03 0.03 0.03 0.03 0.03 0.03 0.03 0.03 0.03 0.03 0.03 0.04 0.04 0.04 0.04 0.04
0.03 0.03 0.03 0.04 0.04 0.04 0.04 0.05 0.05 0.05 0.05 0.05 0.05 0.04 0.04 0.04 0.04 0.03 0.03 0.02 0.02 0.02 0.02 0.02 0.02 0.03 0.03 0.03 0.03 0.03 0.02 0.03 0.03 0.03 0.03 0.04 0.04 0.04
MSLP
1019.70 1019.79 1019.90 1020.01 1020.09 1020.12 1020.06 1019.92 1019.71 1019.44 1019.15 1018.87 1018.63 1018.44 1018.32 1018.24 1018.19 1018.16 1018.13 1018.07 1018.00 1017.91 1017.82 1017.72 1017.62 1017.52 1017.41 1017.26 1017.05 1016.78 1016.42 1015.99 1015.49 1014.95 1014.41 1013.89 1013.42 1013.02
1019.86 1019.98 1020.12 1020.26 1020.36 1020.39 1020.34 1020.20 1019.98 1019.69 1019.38 1019.07 1018.79 1018.55 1018.38 1018.24 1018.15 1018.07 1017.99 1017.92 1017.83 1017.75 1017.68 1017.62 1017.58 1017.54 1017.48 1017.38 1017.21 1016.95 1016.59 1016.13 1015.58 1014.98 1014.35 1013.74 1013.19 1012.71
1019.90 1020.06 1020.25 1020.42 1020.55 1020.62 1020.59 1020.46 1020.25 1019.97 1019.66 1019.34 1019.04 1018.77 1018.55 1018.37 1018.22 1018.09 1017.96 1017.84 1017.73 1017.64 1017.57 1017.53 1017.52 1017.51 1017.50 1017.43 1017.29 1017.05 1016.68 1016.20 1015.62 1014.96 1014.27 1013.60 1012.98 1012.43
1019.85 1020.07 1020.31 1020.53 1020.70 1020.81 1020.81 1020.73 1020.55 1020.30 1020.01 1019.70 1019.40 1019.12 1018.87 1018.65 1018.45 1018.26 1018.08 1017.91 1017.76 1017.64 1017.55 1017.50 1017.48 1017.49 1017.48 1017.43 1017.30 1017.06 1016.69 1016.20 1015.60 1014.91 1014.19 1013.47 1012.79 1012.20
1019.79 1020.06 1020.35 1020.61 1020.83 1020.98 1021.04 1021.00 1020.87 1020.66 1020.41 1020.13 1019.84 1019.57 1019.31 1019.06 1018.83 1018.59 1018.37 1018.15 1017.94 1017.77 1017.64 1017.56 1017.51 1017.49 1017.47 1017.40 1017.26 1017.02 1016.65 1016.15 1015.54 1014.85 1014.11 1013.36 1012.66 1012.03
1019.77 1020.08 1020.40 1020.70 1020.96 1021.14 1021.25 1021.25 1021.17 1021.02 1020.81 1020.57 1020.32 1020.07 1019.81 1019.56 1019.30 1019.04 1018.78 1018.51 1018.26 1018.04 1017.86 1017.73 1017.63 1017.57 1017.50 1017.40 1017.23 1016.96 1016.58 1016.08 1015.47 1014.78 1014.04 1013.29 1012.57 1011.90
1019.83 1020.15 1020.48 1020.80 1021.08 1021.29 1021.42 1021.47 1021.44 1021.33 1021.17 1020.98 1020.76 1020.54 1020.30 1020.05 1019.80 1019.53 1019.24 1018.95 1018.67 1018.41 1018.19 1018.00 1017.85 1017.73 1017.61 1017.46 1017.25 1016.95 1016.55 1016.04 1015.43 1014.74 1014.00 1013.25 1012.51 1011.82
1019.96 1020.28 1020.60 1020.92 1021.19 1021.41 1021.56 1021.63 1021.62 1021.55 1021.44 1021.28 1021.10 1020.90 1020.69 1020.47 1020.23 1019.96 1019.68 1019.39 1019.10 1018.83 1018.58 1018.36 1018.17 1017.99 1017.81 1017.61 1017.35 1017.02 1016.59 1016.07 1015.45 1014.77 1014.03 1013.26 1012.51 1011.77
1020.16 1020.45 1020.74 1021.03 1021.29 1021.49 1021.64 1021.71 1021.73 1021.68 1021.58 1021.45 1021.30 1021.13 1020.95 1020.75 1020.53 1020.29 1020.04 1019.77 1019.50 1019.23 1018.99 1018.76 1018.55 1018.34 1018.13 1017.88 1017.58 1017.21 1016.75 1016.20 1015.58 1014.88 1014.13 1013.35 1012.56 1011.78
1020.40 1020.64 1020.90 1021.14 1021.36 1021.54 1021.67 1021.74 1021.75 1021.70 1021.62 1021.50 1021.37 1021.21 1021.05 1020.87 1020.68 1020.47 1020.26 1020.03 1019.81 1019.59 1019.37 1019.17 1018.97 1018.76 1018.53 1018.26 1017.93 1017.53 1017.04 1016.48 1015.83 1015.11 1014.35 1013.54 1012.71 1011.88
1020.65 1020.85 1021.05 1021.25 1021.43 1021.57 1021.68 1021.73 1021.73 1021.68 1021.59 1021.47 1021.34 1021.19 1021.03 1020.87 1020.70 1020.53 1020.36 1020.19 1020.02 1019.86 1019.71 1019.56 1019.40 1019.22 1019.01 1018.74 1018.40 1017.98 1017.48 1016.89 1016.22 1015.49 1014.70 1013.87 1013.01 1012.14
1020.90 1021.05 1021.20 1021.36 1021.50 1021.62 1021.69 1021.72 1021.71 1021.65 1021.55 1021.42 1021.28 1021.12 1020.96 1020.80 1020.65 1020.50 1020.37 1020.26 1020.16 1020.07 1020.00 1019.92 1019.82 1019.69 1019.52 1019.28 1018.95 1018.53 1018.03 1017.43 1016.75 1016.01 1015.21 1014.37 1013.50 1012.60
1021.15 1021.26 1021.37 1021.49 1021.60 1021.69 1021.75 1021.76 1021.74 1021.66 1021.55 1021.41 1021.25 1021.08 1020.90 1020.74 1020.59 1020.46 1020.36 1020.29 1020.25 1020.23 1020.23 1020.23 1020.21 1020.15 1020.03 1019.84 1019.54 1019.15 1018.66 1018.07 1017.41 1016.67 1015.88 1015.04 1014.18 1013.29
1021.39 1021.47 1021.56 1021.66 1021.75 1021.82 1021.86 1021.87 1021.83 1021.75 1021.63 1021.48 1021.30 1021.11 1020.92 1020.74 1020.58 1020.45 1020.36 1020.32 1020.32 1020.36 1020.43 1020.50 1020.55 1020.57 1020.52 1020.38 1020.14 1019.79 1019.34 1018.78 1018.14 1017.44 1016.68 1015.89 1015.06 1014.22
1021.64 1021.70 1021.78 1021.86 1021.94 1022.00 1022.03 1022.03 1022.00 1021.92 1021.80 1021.64 1021.45 1021.25 1021.04 1020.83 1020.66 1020.52 1020.43 1020.39 1020.42 1020.49 1020.60 1020.73 1020.85 1020.93 1020.95 1020.87 1020.70 1020.41 1020.01 1019.51 1018.93 1018.28 1017.58 1016.85 1016.10 1015.33
1021.89 1021.95 1022.02 1022.08 1022.15 1022.20 1022.23 1022.24 1022.21 1022.14 1022.02 1021.87 1021.69 1021.47 1021.25 1021.03 1020.83 1020.67 1020.57 1020.52 1020.55 1020.63 1020.77 1020.93 1021.09 1021.22 1021.30 1021.29 1021.18 1020.96 1020.64 1020.21 1019.70 1019.13 1018.52 1017.87 1017.21 1016.54
1022.15 1022.20 1022.26 1022.31 1022.37 1022.41 1022.44 1022.45 1022.43 1022.38 1022.28 1022.15 1021.97 1021.77 1021.54 1021.31 1021.10 1020.91 1020.78 1020.72 1020.72 1020.79 1020.93 1021.10 1021.29 1021.46 1021.58 1021.63 1021.58 1021.44 1021.19 1020.85 1020.43 1019.95 1019.43 1018.88 1018.32 1017.75
1022.40 1022.45 1022.49 1022.53 1022.57 1022.61 1022.64 1022.65 1022.64 1022.61 1022.53 1022.42 1022.28 1022.09 1021.87 1021.64 1021.42 1021.22 1021.06 1020.97 1020.94 1020.99 1021.10 1021.26 1021.45 1021.64 1021.79 1021.89 1021.90 1021.82 1021.65 1021.39 1021.06 1020.67 1020.25 1019.80 1019.34 1018.86
1022.64 1022.67 1022.70 1022.73 1022.75 1022.78 1022.80 1022.81 1022.82 1022.80 1022.76 1022.68 1022.57 1022.41 1022.22 1022.00 1021.77 1021.56 1021.39 1021.26 1021.20 1021.21 1021.30 1021.43 1021.61 1021.79 1021.96 1022.08 1022.14 1022.12 1022.01 1021.83 1021.58 1021.28 1020.95 1020.58 1020.20 1019.81
1022.85 1022.88 1022.90 1022.90 1022.91 1022.92 1022.94 1022.95 1022.97 1022.98 1022.96 1022.92 1022.84 1022.71 1022.55 1022.35 1022.14 1021.93 1021.74 1021.58 1021.49 1021.47 1021.51 1021.62 1021.76 1021.93 1022.10 1022.23 1022.32 1022.34 1022.29 1022.17 1021.99 1021.76 1021.50 1021.20 1020.89 1020.56
1023.04 1023.07 1023.07 1023.07 1023.06 1023.06 1023.07 1023.09 1023.11 1023.14 1023.15 1023.13 1023.09 1023.00 1022.87 1022.70 1022.50 1022.29 1022.10 1021.93 1021.81 1021.75 1021.76 1021.83 1021.94 1022.08 1022.23 1022.36 1022.45 1022.50 1022.48 1022.41 1022.28 1022.11 1021.90 1021.66 1021.40 1021.12
1023.22 1023.24 1023.25 1023.24 1023.22 1023.22 1023.22 1023.24 1023.27 1023.30 1023.33 1023.34 1023.32 1023.26 1023.16 1023.02 1022.84 1022.64 1022.45 1022.27 1022.14 1022.05 1022.02 1022.05 1022.12 1022.23 1022.35 1022.47 1022.56 1022.61 1022.61 1022.56 1022.47 1022.33 1022.17 1021.97 1021.75 1021.52
1023.38 1023.42 1023.43 1023.42 1023.41 1023.40 1023.40 1023.42 1023.45 1023.49 1023.53 1023.55 1023.55 1023.51 1023.43 1023.31 1023.15 1022.97 1022.78 1022.60 1022.45 1022.35 1022.29 1022.28 1022.31 1022.38 1022.47 1022.55 1022.62 1022.66 1022.67 1022.63 1022.56 1022.45 1022.32 1022.16 1021.98 1021.79
Thickness
5650 5649 5647 5646 5646 5645 5643 5639 5634 5629 5630 5634 5636 5638 5638 5637 5637 5636 5635 5635 5636 5636 5637 5637 5637 5638 5638 5639 5640 5641 5642 5643 5645 5647 5649 5650 5650 5651
5644 5642 5640 5639 5639 5637 5636 5634 5631 5627 5624 5628 5629 5631 5631 5630 5630 5630 5630 5630 5630 5630 5630 5631 5631 5631 5632 5632 5633 5634 5635 5637 5639 5641 5642 5644 5644 5644
5637 5635 5633 5632 5630 5628 5627 5626 5624 5622 5618 5620 5623 5624 5624 5623 5623 5623 5623 5623 5623 5623 5624 5624 5624 5624 5624 5625 5626 5627 5628 5630 5632 5634 5636 5638 5638 5639
5629 5627 5625 5624 5622 5620 5619 5617 5616 5616 5613 5612 5614 5615 5615 5616 5616 5616 5616 5616 5616 5616 5617 5617 5617 5617 5617 5618 5618 5619 5621 5622 5624 5627 5629 5631 5632 5633
5622 5619 5617 5616 5613 5612 5610 5608 5607 5608 5606 5605 5605 5606 5607 5608 5608 5609 5609 5609 5609 5609 5609 5609 5610 5610 5610 5610 5611 5612 5614 5616 5618 5620 5622 5624 5625 5626
5614 5612 5610 5608 5605 5603 5602 5599 5599 5597 5597 5596 5596 5597 5597 5599 5599 5598 5599 5600 5601 5602 5602 5603 5603 5603 5603 5604 5604 5605 5606 5608 5610 5613 5614 5616 5618 5619
5605 5604 5603 5601 5599 5596 5594 5591 5589 5588 5587 5587 5586 5586 5587 5588 5588 5589 5589 5591 5593 5594 5594 5595 5595 5596 5596 5596 5597 5598 5599 5601 5603 5605 5607 5609 5610 5612
5595 5594 5593 5591 5590 5588 5586 5584 5582 5580 5577 5577 5577 5576 5577 5578 5580 5581 5580 5580 5581 5586 5585 5586 5588 5588 5589 5589 5590 5591 5592 5594 5595 5597 5600 5602 5603 5604
5585 5583 5583 5582 5580 5578 5577 5576 5574 5573 5572 5570 5569 5569 5569 5570 5571 5572 5572 5572 5573 5576 5576 5577 5579 5579 5581 5582 5583 5584 5585 5586 5587 5589 5591 5594 5596 5598
5574 5573 5572 5570 5569 5567 5566 5565 5564 5563 5563 5563 5563 5563 5564 5564 5564 5564 5564 5565 5566 5567 5568 5566 5569 5571 5573 5574 5575 5576 5577 5579 5580 5582 5584 5586 5588 5591
5564 5562 5561 5559 5558 5557 5556 5554 5553 5553 5554 5554 5555 5556 5556 5556 5556 5555 5554 5554 5555 5557 5559 5558 5560 5561 5563 5565 5567 5568 5570 5571 5572 5574 5575 5578 5580 5582
5552 5552 5550 5548 5547 5546 5545 5544 5542 5543 5543 5544 5545 5546 5546 5547 5547 5546 5546 5545 5546 5546 5549 5549 5549 5550 5551 5555 5557 5559 5560 5561 5563 5565 5567 5569 5571 5574
5541 5540 5539 5538 5537 5536 5535 5534 5534 5534 5534 5534 5534 5535 5535 5536 5537 5537 5538 5538 5538 5539 5541 5540 5540 5540 5540 5543 5546 5548 5549 5551 5554 5556 5558 5561 5563 5565
5529 5528 5527 5527 5526 5525 5525 5525 5525 5525 5523 5523 5524 5524 5525 5525 5527 5528 5529 5530 5531 5532 5533 5532 5531 5531 5531 5532 5534 5538 5540 5542 5545 5547 5549 5552 5554 5557
5517 5517 5516 5516 5515 5514 5515 5514 5514 5513 5513 5512 5513 5514 5515 5516 5516 5517 5519 5520 5522 5523 5524 5524 5524 5524 5524 5524 5525 5527 5529 5533 5535 5538 5540 5543 5546 5548
5505 5505 5504 5504 5503 5503 5503 5503 5503 5503 5503 5502 5503 5503 5504 5504 5505 5506 5507 5508 5510 5512 5514 5515 5515 5515 5515 5516 5516 5518 5520 5523 5526 5528 5531 5534 5537 5540
5493 5493 5492 5491 5491 5491 5492 5492 5492 5492 5492 5492 5492 5492 5492 5493 5494 5495 5496 5497 5498 5500 5501 5503 5505 5506 5507 5507 5507 5509 5511 5513 5516 5518 5521 5525 5528 5532
5481 5480 5480 5480 5480 5480 5480 5480 5480 5481 5481 5481 5482 5482 5482 5483 5483 5484 5485 5486 5487 5489 5490 5492 5493 5494 5495 5497 5498 5500 5501 5503 5506 5508 5511 5514 5518 5522
5470 5470 5469 5469 5470 5470 5470 5469 5469 5470 5470 5470 5471 5471 5472 5472 5473 5473 5474 5475 5476 5478 5480 5481 5483 5484 5484 5487 5489 5490 5491 5493 5495 5497 5500 5503 5507 5511
5460 5460 5460 5460 5460 5459 5459 5459 5459 5458 5458 5459 5459 5460 5460 5461 5462 5462 5464 5465 5467 5468 5469 5471 5473 5475 5477 5478 5479 5481 5483 5484 5485 5487 5489 5492 5496 5500
5451 5450 5450 5450 5450 5450 5449 5449 5448 5448 5448 5448 5449 5449 5450 5450 5451 5452 5453 5456 5457 5458 5459 5461 5464 5466 5467 5468 5469 5471 5472 5474 5476 5477 5479 5481 5484 5488
5442 5441 5441 5440 5440 5440 5439 5439 5438 5438 5438 5438 5439 5440 5440 5441 5442 5443 5445 5446 5447 5449 5451 5452 5454 5455 5456 5458 5460 5461 5462 5464 5466 5468 5470 5473 5474 5478
5433 5432 5431 5431 5431 5431 5430 5430 5430 5430 5430 5429 5429 5430 5431 5431 5433 5434 5436 5437 5438 5440 5441 5442 5443 5445 5447 5448 5450 5451 5453 5454 5456 5458 5460 5464 5467 5470